Time,TemperatureF,DewpointF,PressureIn,WindDirection,WindDirectionDegrees,WindSpeedMPH,WindSpeedGustMPH,Humidity,HourlyPrecipIn,Conditions,Clouds,dailyrainin,SoftwareType,DateUTC
2013-03-16 00:02:00,33.0,25.0,26.65,NE,41,6.0,11.0,73,0.00,,,0.00,,2013-03-16 06:02:00,
2013-03-16 00:12:00,33.0,25.0,26.65,NE,41,6.0,11.0,73,0.00,,,0.00,,2013-03-16 06:12:00,
2013-03-16 00:22:00,33.0,25.0,26.66,ENE,59,7.0,11.0,73,0.00,,,0.00,,2013-03-16 06:22:00,
2013-03-16 00:32:00,33.0,26.0,26.67,NNW,346,5.0,8.0,74,0.00,,,0.00,,2013-03-16 06:32:00,
2013-03-16 00:42:00,33.0,26.0,26.67,NNW,346,5.0,8.0,74,0.00,,,0.00,,2013-03-16 06:42:00,
2013-03-16 00:52:00,33.0,26.0,26.67,NNE,26,2.0,9.0,74,0.00,,,0.00,,2013-03-16 06:52:00,
2013-03-16 01:02:00,32.0,25.0,26.67,NNE,28,5.0,9.0,75,0.00,,,0.00,,2013-03-16 07:02:00,
2013-03-16 01:12:00,32.0,25.0,26.67,NNE,28,5.0,9.0,75,0.00,,,0.00,,2013-03-16 07:12:00,
2013-03-16 01:22:00,32.0,25.0,26.67,North,355,6.0,9.0,76,0.00,,,0.00,,2013-03-16 07:22:00,
2013-03-16 01:32:00,32.0,25.0,26.67,North,355,6.0,9.0,76,0.00,,,0.00,,2013-03-16 07:32:00,
2013-03-16 01:42:00,32.0,25.0,26.67,North,355,6.0,9.0,76,0.00,,,0.00,,2013-03-16 07:42:00,
2013-03-16 01:52:00,31.0,24.0,26.68,NE,40,7.0,11.0,76,0.00,,,0.00,,2013-03-16 07:52:00,
2013-03-16 02:02:00,31.0,24.0,26.67,NE,42,7.0,11.0,76,0.00,,,0.00,,2013-03-16 08:02:00,
2013-03-16 02:12:00,31.0,24.0,26.67,NE,42,7.0,11.0,76,0.00,,,0.00,,2013-03-16 08:12:00,
2013-03-16 02:23:00,30.0,23.0,26.67,NE,51,9.0,15.0,76,0.00,,,0.00,,2013-03-16 08:23:00,
2013-03-16 02:32:00,31.0,25.0,26.68,NE,42,6.0,11.0,77,0.00,,,0.00,,2013-03-16 08:32:00,
2013-03-16 02:42:00,31.0,25.0,26.68,NE,42,6.0,11.0,77,0.00,,,0.00,,2013-03-16 08:42:00,
2013-03-16 02:52:00,30.0,23.0,26.68,NE,47,7.0,11.0,76,0.00,,,0.00,,2013-03-16 08:52:00,
2013-03-16 03:01:00,30.0,23.0,26.68,NNE,23,6.0,11.0,76,0.00,,,0.00,,2013-03-16 09:01:00,
2013-03-16 03:12:00,30.0,23.0,26.68,NNE,23,6.0,11.0,76,0.00,,,0.00,,2013-03-16 09:12:00,
2013-03-16 03:22:00,30.0,23.0,26.68,NE,46,4.0,9.0,76,0.00,,,0.00,,2013-03-16 09:22:00,
2013-03-16 03:32:00,30.0,23.0,26.68,NNE,29,7.0,9.0,76,0.00,,,0.00,,2013-03-16 09:32:00,
2013-03-16 03:42:00,30.0,23.0,26.68,NNE,29,7.0,9.0,76,0.00,,,0.00,,2013-03-16 09:42:00,
2013-03-16 03:53:00,29.0,23.0,26.68,NE,38,5.0,8.0,77,0.00,,,0.00,,2013-03-16 09:53:00,
2013-03-16 04:03:00,29.0,22.0,26.67,NE,45,7.0,10.0,76,0.00,,,0.00,,2013-03-16 10:03:00,
2013-03-16 04:12:00,29.0,22.0,26.67,NE,45,7.0,10.0,76,0.00,,,0.00,,2013-03-16 10:12:00,
2013-03-16 04:22:00,29.0,22.0,26.67,NE,46,5.0,8.0,76,0.00,,,0.00,,2013-03-16 10:22:00,
2013-03-16 04:32:00,29.0,22.0,26.67,ENE,64,2.0,7.0,76,0.00,,,0.00,,2013-03-16 10:32:00,
2013-03-16 04:42:00,29.0,22.0,26.67,ENE,64,2.0,7.0,76,0.00,,,0.00,,2013-03-16 10:42:00,
2013-03-16 04:53:00,29.0,22.0,26.67,NE,53,2.0,7.0,76,0.00,,,0.00,,2013-03-16 10:53:00,
2013-03-16 05:03:00,29.0,22.0,26.67,ENE,64,3.0,6.0,76,0.00,,,0.00,,2013-03-16 11:03:00,
2013-03-16 05:12:00,29.0,22.0,26.67,ENE,64,3.0,6.0,76,0.00,,,0.00,,2013-03-16 11:12:00,
2013-03-16 05:22:00,29.0,22.0,26.67,ENE,67,1.0,3.0,76,0.00,,,0.00,,2013-03-16 11:22:00,
2013-03-16 05:32:00,28.0,21.0,26.67,ENE,71,1.0,6.0,76,0.00,,,0.00,,2013-03-16 11:32:00,
2013-03-16 05:42:00,28.0,21.0,26.67,ENE,71,1.0,6.0,76,0.00,,,0.00,,2013-03-16 11:42:00,
2013-03-16 05:52:00,28.0,21.0,26.67,East,79,2.0,5.0,76,0.00,,,0.00,,2013-03-16 11:52:00,
2013-03-16 06:02:00,28.0,21.0,26.67,ENE,68,2.0,5.0,76,0.00,,,0.00,,2013-03-16 12:02:00,
2013-03-16 06:12:00,28.0,21.0,26.67,ENE,68,2.0,5.0,76,0.00,,,0.00,,2013-03-16 12:12:00,
2013-03-16 06:22:00,28.0,21.0,26.67,ENE,63,1.0,4.0,76,0.00,,,0.00,,2013-03-16 12:22:00,
2013-03-16 06:32:00,28.0,21.0,26.66,ENE,60,2.0,6.0,76,0.00,,,0.00,,2013-03-16 12:32:00,
2013-03-16 06:42:00,28.0,21.0,26.66,ENE,60,2.0,6.0,76,0.00,,,0.00,,2013-03-16 12:42:00,
2013-03-16 06:52:00,28.0,21.0,26.66,ENE,60,0.0,4.0,76,0.00,,,0.00,,2013-03-16 12:52:00,
2013-03-16 07:02:00,28.0,21.0,26.66,ENE,61,1.0,4.0,76,0.00,,,0.00,,2013-03-16 13:02:00,
2013-03-16 07:12:00,28.0,21.0,26.66,ENE,61,1.0,4.0,76,0.00,,,0.00,,2013-03-16 13:12:00,
2013-03-16 07:22:00,28.0,22.0,26.66,ENE,57,1.0,5.0,77,0.00,,,0.00,,2013-03-16 13:22:00,
2013-03-16 07:32:00,28.0,22.0,26.66,East,101,2.0,5.0,78,0.00,,,0.00,,2013-03-16 13:32:00,
2013-03-16 07:42:00,28.0,22.0,26.66,East,101,2.0,5.0,78,0.00,,,0.00,,2013-03-16 13:42:00,
2013-03-16 07:53:00,28.0,22.0,26.66,East,80,0.0,4.0,79,0.00,,,0.00,,2013-03-16 13:53:00,
2013-03-16 08:02:00,28.0,22.0,26.66,East,83,0.0,4.0,79,0.00,,,0.00,,2013-03-16 14:02:00,
2013-03-16 08:12:00,28.0,22.0,26.66,East,83,0.0,4.0,79,0.00,,,0.00,,2013-03-16 14:12:00,
2013-03-16 08:22:00,28.0,22.0,26.65,East,90,2.0,5.0,79,0.00,,,0.00,,2013-03-16 14:22:00,
2013-03-16 08:32:00,29.0,23.0,26.66,East,91,0.0,5.0,79,0.00,,,0.00,,2013-03-16 14:32:00,
2013-03-16 08:42:00,29.0,23.0,26.66,East,91,0.0,5.0,79,0.00,,,0.00,,2013-03-16 14:42:00,
2013-03-16 08:52:00,29.0,23.0,26.66,East,94,1.0,5.0,79,0.00,,,0.00,,2013-03-16 14:52:00,
2013-03-16 09:02:00,29.0,23.0,26.65,SE,131,4.0,7.0,79,0.00,,,0.00,,2013-03-16 15:02:00,
2013-03-16 09:12:00,29.0,23.0,26.65,SE,131,4.0,7.0,79,0.00,,,0.00,,2013-03-16 15:12:00,
2013-03-16 09:22:00,29.0,23.0,26.66,SW,217,4.0,7.0,79,0.00,,,0.00,,2013-03-16 15:22:00,
2013-03-16 09:33:00,29.0,23.0,26.66,SSE,161,6.0,10.0,79,0.00,,,0.00,,2013-03-16 15:33:00,
2013-03-16 09:43:00,29.0,23.0,26.66,SSE,161,6.0,10.0,79,0.00,,,0.00,,2013-03-16 15:43:00,
2013-03-16 09:53:00,29.0,23.0,26.66,South,176,6.0,10.0,79,0.00,,,0.00,,2013-03-16 15:53:00,
2013-03-16 10:03:00,29.0,23.0,26.66,SSW,210,5.0,12.0,79,0.00,,,0.00,,2013-03-16 16:03:00,
2013-03-16 10:12:00,29.0,23.0,26.66,SSW,210,5.0,12.0,79,0.00,,,0.00,,2013-03-16 16:12:00,
2013-03-16 10:22:00,29.0,23.0,26.66,SSE,151,7.0,12.0,79,0.00,,,0.00,,2013-03-16 16:22:00,
2013-03-16 10:33:00,30.0,24.0,26.66,South,183,7.0,12.0,78,0.00,,,0.00,,2013-03-16 16:33:00,
2013-03-16 10:42:00,30.0,24.0,26.66,South,183,7.0,12.0,78,0.00,,,0.00,,2013-03-16 16:42:00,
2013-03-16 10:53:00,30.0,24.0,26.66,SSE,165,5.0,14.0,78,0.00,,,0.00,,2013-03-16 16:53:00,
2013-03-16 11:03:00,30.0,24.0,26.66,South,184,7.0,12.0,78,0.00,,,0.00,,2013-03-16 17:03:00,
2013-03-16 11:12:00,30.0,24.0,26.66,South,184,7.0,12.0,78,0.00,,,0.00,,2013-03-16 17:12:00,
2013-03-16 11:23:00,30.0,24.0,26.65,ESE,115,7.0,14.0,78,0.00,,,0.00,,2013-03-16 17:23:00,
2013-03-16 11:32:00,31.0,25.0,26.65,ESE,107,8.0,12.0,77,0.00,,,0.00,,2013-03-16 17:32:00,
2013-03-16 11:42:00,31.0,25.0,26.65,ESE,107,8.0,12.0,77,0.00,,,0.00,,2013-03-16 17:42:00,
2013-03-16 11:53:00,31.0,24.0,26.64,SE,144,7.0,14.0,76,0.00,,,0.00,,2013-03-16 17:53:00,
2013-03-16 12:02:00,31.0,24.0,26.64,WSW,248,8.0,16.0,76,0.00,,,0.00,,2013-03-16 18:02:00,
2013-03-16 12:13:00,31.0,24.0,26.64,WSW,248,8.0,16.0,76,0.00,,,0.00,,2013-03-16 18:13:00,
2013-03-16 12:23:00,31.0,24.0,26.64,SSW,192,9.0,13.0,76,0.00,,,0.00,,2013-03-16 18:23:00,
2013-03-16 12:32:00,30.0,25.0,26.63,SE,142,6.0,13.0,80,0.00,,,0.00,,2013-03-16 18:32:00,
2013-03-16 12:42:00,30.0,25.0,26.63,SE,142,6.0,13.0,80,0.00,,,0.00,,2013-03-16 18:42:00,
2013-03-16 12:53:00,30.0,25.0,26.63,SE,140,8.0,15.0,83,0.00,,,0.00,,2013-03-16 18:53:00,
2013-03-16 13:02:00,30.0,26.0,26.63,SE,128,5.0,11.0,84,0.00,,,0.00,,2013-03-16 19:02:00,
2013-03-16 13:12:00,30.0,26.0,26.63,SE,128,5.0,11.0,84,0.00,,,0.00,,2013-03-16 19:12:00,
2013-03-16 13:22:00,30.0,26.0,26.62,South,173,8.0,14.0,85,0.00,,,0.00,,2013-03-16 19:22:00,
2013-03-16 13:32:00,30.0,26.0,26.61,South,191,7.0,12.0,86,0.00,,,0.00,,2013-03-16 19:32:00,
2013-03-16 13:42:00,30.0,26.0,26.61,South,191,7.0,12.0,86,0.00,,,0.00,,2013-03-16 19:42:00,
2013-03-16 13:53:00,30.0,26.0,26.60,SE,134,8.0,12.0,86,0.00,,,0.00,,2013-03-16 19:53:00,
2013-03-16 14:02:00,30.0,27.0,26.59,SE,137,9.0,15.0,87,0.00,,,0.00,,2013-03-16 20:02:00,
2013-03-16 14:12:00,30.0,27.0,26.59,SE,137,9.0,15.0,87,0.00,,,0.00,,2013-03-16 20:12:00,
2013-03-16 14:22:00,30.0,27.0,26.58,ESE,111,9.0,13.0,88,0.01,,,0.01,,2013-03-16 20:22:00,
2013-03-16 14:32:00,29.0,26.0,26.57,ESE,117,8.0,12.0,88,0.01,,,0.01,,2013-03-16 20:32:00,
2013-03-16 14:42:00,29.0,26.0,26.57,ESE,117,8.0,12.0,88,0.01,,,0.01,,2013-03-16 20:42:00,
2013-03-16 14:52:00,29.0,26.0,26.57,SE,145,7.0,14.0,88,0.02,,,0.02,,2013-03-16 20:52:00,
2013-03-16 15:02:00,29.0,26.0,26.57,SE,143,10.0,13.0,89,0.02,,,0.02,,2013-03-16 21:02:00,
2013-03-16 15:12:00,29.0,26.0,26.57,SE,143,10.0,13.0,89,0.02,,,0.02,,2013-03-16 21:12:00,
2013-03-16 15:22:00,30.0,27.0,26.56,SE,134,8.0,13.0,89,0.01,,,0.02,,2013-03-16 21:22:00,
2013-03-16 15:32:00,30.0,27.0,26.56,ESE,123,8.0,13.0,89,0.01,,,0.02,,2013-03-16 21:32:00,
2013-03-16 15:43:00,30.0,27.0,26.56,ESE,123,8.0,13.0,89,0.01,,,0.02,,2013-03-16 21:43:00,
2013-03-16 15:53:00,30.0,27.0,26.56,ESE,117,9.0,12.0,89,0.00,,,0.02,,2013-03-16 21:53:00,
2013-03-16 16:03:00,30.0,27.0,26.56,ESE,113,8.0,12.0,89,0.00,,,0.02,,2013-03-16 22:03:00,
2013-03-16 16:12:00,30.0,27.0,26.56,ESE,113,8.0,12.0,89,0.00,,,0.02,,2013-03-16 22:12:00,
2013-03-16 16:22:00,30.0,27.0,26.55,ESE,107,9.0,13.0,90,0.00,,,0.02,,2013-03-16 22:22:00,
2013-03-16 16:33:00,30.0,27.0,26.55,SE,133,10.0,14.0,90,0.00,,,0.02,,2013-03-16 22:33:00,
2013-03-16 16:42:00,30.0,27.0,26.55,SE,133,10.0,14.0,90,0.00,,,0.02,,2013-03-16 22:42:00,
2013-03-16 16:52:00,30.0,27.0,26.55,SE,142,11.0,14.0,90,0.00,,,0.02,,2013-03-16 22:52:00,
2013-03-16 17:02:00,29.0,26.0,26.55,ESE,114,8.0,13.0,90,0.00,,,0.02,,2013-03-16 23:02:00,
2013-03-16 17:12:00,29.0,26.0,26.55,ESE,114,8.0,13.0,90,0.00,,,0.02,,2013-03-16 23:12:00,
2013-03-16 17:22:00,29.0,26.0,26.55,SE,131,7.0,11.0,90,0.00,,,0.02,,2013-03-16 23:22:00,
2013-03-16 17:32:00,29.0,26.0,26.55,SE,130,7.0,10.0,90,0.00,,,0.02,,2013-03-16 23:32:00,
2013-03-16 17:42:00,29.0,26.0,26.55,SE,130,7.0,10.0,90,0.00,,,0.02,,2013-03-16 23:42:00,
2013-03-16 17:52:00,29.0,26.0,26.56,ESE,121,5.0,10.0,90,0.00,,,0.02,,2013-03-16 23:52:00,
2013-03-16 18:01:00,28.0,25.0,26.55,ESE,123,12.0,16.0,90,0.00,,,0.02,,2013-03-17 00:01:00,
2013-03-16 18:12:00,28.0,25.0,26.55,ESE,123,12.0,16.0,90,0.00,,,0.02,,2013-03-17 00:12:00,
2013-03-16 18:22:00,28.0,26.0,26.56,ESE,111,9.0,13.0,91,0.00,,,0.02,,2013-03-17 00:22:00,
2013-03-16 18:32:00,28.0,25.0,26.56,ESE,103,7.0,12.0,90,0.00,,,0.02,,2013-03-17 00:32:00,
2013-03-16 18:42:00,28.0,25.0,26.56,ESE,103,7.0,12.0,90,0.00,,,0.02,,2013-03-17 00:42:00,
2013-03-16 18:52:00,27.0,25.0,26.57,ESE,121,7.0,11.0,91,0.00,,,0.02,,2013-03-17 00:52:00,
2013-03-16 19:02:00,27.0,25.0,26.57,ESE,115,6.0,12.0,91,0.00,,,0.02,,2013-03-17 01:02:00,
2013-03-16 19:12:00,27.0,25.0,26.57,ESE,115,6.0,12.0,91,0.00,,,0.02,,2013-03-17 01:12:00,
2013-03-16 19:22:00,26.0,24.0,26.59,ESE,119,6.0,13.0,91,0.00,,,0.02,,2013-03-17 01:22:00,
2013-03-16 19:32:00,26.0,24.0,26.58,SE,130,8.0,12.0,91,0.00,,,0.02,,2013-03-17 01:32:00,
2013-03-16 19:42:00,26.0,24.0,26.58,SE,130,8.0,12.0,91,0.00,,,0.02,,2013-03-17 01:42:00,
2013-03-16 19:53:00,26.0,24.0,26.59,SE,134,9.0,13.0,91,0.00,,,0.02,,2013-03-17 01:53:00,
2013-03-16 20:02:00,26.0,24.0,26.58,East,101,9.0,13.0,91,0.00,,,0.02,,2013-03-17 02:02:00,
2013-03-16 20:12:00,26.0,24.0,26.58,East,101,9.0,13.0,91,0.00,,,0.02,,2013-03-17 02:12:00,
2013-03-16 20:22:00,26.0,24.0,26.59,ESE,123,9.0,13.0,91,0.00,,,0.02,,2013-03-17 02:22:00,
2013-03-16 20:33:00,26.0,24.0,26.58,SE,132,7.0,10.0,91,0.00,,,0.02,,2013-03-17 02:33:00,
2013-03-16 20:42:00,26.0,24.0,26.58,SE,132,7.0,10.0,91,0.00,,,0.02,,2013-03-17 02:42:00,
2013-03-16 20:53:00,26.0,24.0,26.59,ESE,105,7.0,10.0,91,0.00,,,0.02,,2013-03-17 02:53:00,
2013-03-16 21:02:00,26.0,24.0,26.58,SSE,150,9.0,12.0,91,0.00,,,0.02,,2013-03-17 03:02:00,
2013-03-16 21:12:00,26.0,24.0,26.58,SSE,150,9.0,12.0,91,0.00,,,0.02,,2013-03-17 03:12:00,
2013-03-16 21:22:00,26.0,24.0,26.58,ESE,122,7.0,9.0,91,0.00,,,0.02,,2013-03-17 03:22:00,
2013-03-16 21:33:00,25.0,23.0,26.58,ESE,123,8.0,11.0,91,0.00,,,0.02,,2013-03-17 03:33:00,
2013-03-16 21:43:00,25.0,23.0,26.58,ESE,123,8.0,11.0,91,0.00,,,0.02,,2013-03-17 03:43:00,
2013-03-16 21:53:00,25.0,23.0,26.58,SSE,155,7.0,13.0,91,0.00,,,0.02,,2013-03-17 03:53:00,
2013-03-16 22:03:00,25.0,23.0,26.57,SSE,148,7.0,12.0,91,0.00,,,0.02,,2013-03-17 04:03:00,
2013-03-16 22:12:00,25.0,23.0,26.57,SSE,148,7.0,12.0,91,0.00,,,0.02,,2013-03-17 04:12:00,
2013-03-16 22:23:00,24.0,22.0,26.55,SE,136,10.0,15.0,91,0.00,,,0.02,,2013-03-17 04:23:00,
2013-03-16 22:32:00,24.0,22.0,26.55,SSE,154,9.0,13.0,91,0.00,,,0.02,,2013-03-17 04:32:00,
2013-03-16 22:42:00,24.0,22.0,26.55,SSE,154,9.0,13.0,91,0.00,,,0.02,,2013-03-17 04:42:00,
2013-03-16 22:53:00,24.0,22.0,26.54,South,171,8.0,12.0,91,0.00,,,0.02,,2013-03-17 04:53:00,
2013-03-16 23:02:00,24.0,22.0,26.54,SSE,148,7.0,14.0,91,0.00,,,0.02,,2013-03-17 05:02:00,
2013-03-16 23:12:00,24.0,22.0,26.54,SSE,148,7.0,14.0,91,0.00,,,0.02,,2013-03-17 05:12:00,
2013-03-16 23:22:00,24.0,22.0,26.54,SE,129,9.0,12.0,91,0.00,,,0.02,,2013-03-17 05:22:00,
2013-03-16 23:32:00,23.0,21.0,26.54,SSE,165,10.0,13.0,91,0.00,,,0.02,,2013-03-17 05:32:00,
2013-03-16 23:42:00,23.0,21.0,26.54,SSE,165,10.0,13.0,91,0.00,,,0.02,,2013-03-17 05:42:00,
2013-03-16 23:52:00,23.0,21.0,26.53,ESE,109,8.0,11.0,91,0.00,,,0.02,,2013-03-17 05:52:00,